Location: *
(40.9167°N, 9.5000°E)
Time: 00:11:37
(UTC+00:00)

Cosmos 1328 - Pass Details

Date: 09 April 2020
Orbit: 539 x 544 km, 82.5° (Epoch: 05 June)

Event Time Altitude Azimuth Distance (km) Brightness Sun altitude
Rises 19:06:10 0° 349° (N) 2,718 7.9 -13.5°
Reaches altitude 10° 19:08:20 10° 347° (NNW) 1,821 7.0 -13.9°
Maximum altitude 19:12:19 69° 265° (W) 586 4.1 -14.6°
Drops below altitude 10° 19:16:16 10° 182° (S) 1,807 6.2 -15.2°
Enters shadow 19:17:28 - 180° (S) 2,298 6.7 -15.5°
